Kate Golding — WDH7802 — position and weather

sailwx.info

Track history (hours):
 
Tides and Currents Weather Stations Pressure Air Temp Water Temp Dewpoint Dewpoint Depression Visibility Wind Speed Wind Dir Waves Ship Positions

Kate Golding

Owner: GOLDING BARGE LINE, INC, VICKSBURG, MS. More information available from US FCC via Universal Licensing System and Coast Guard Vessel Documentation Center.

Last reported at 2018-Feb-24 19:30 UTC. Time now 2018-Feb-24 19:45 UTC.
Position N 29°59' W 093°53'.

Length 121 m; draft 2.4 m.

Type: . MMSI: 367651810.

Date/timePositionNaut miles runAvg speedWind from/ knotsBaromVisibWave heightAir tempDewpointWater temp
2018-Feb-24 19:30N 29°59' W 093°53'0 0.0
2018-Feb-24 19:00N 29°59' W 093°53'0 0.0
2018-Feb-24 18:30N 29°59' W 093°53'0 0.0
2018-Feb-24 18:00N 29°59' W 093°53'0 0.0
2018-Feb-24 17:30N 29°59' W 093°53'0 0.0
2018-Feb-24 17:00N 29°59' W 093°53'0 0.0
2018-Feb-24 16:30N 29°59' W 093°53'0 0.0
2018-Feb-24 16:00N 29°59' W 093°53'0 0.0
2018-Feb-24 15:29N 29°59' W 093°53'0 0.0
2018-Feb-24 15:00N 29°59' W 093°53'1 2.3
2018-Feb-24 14:30N 29°59' W 093°54'0 1.0
2018-Feb-24 14:01N 29°60' W 093°55'0 0.0
2018-Feb-24 13:30N 29°60' W 093°55'0 0.0
2018-Feb-24 13:00N 29°60' W 093°55'0 0.0
2018-Feb-24 12:30N 29°60' W 093°55'0 0.0
2018-Feb-24 12:00N 29°60' W 093°55'0 0.0
2018-Feb-24 11:31N 29°60' W 093°55'0 0.0
2018-Feb-24 11:00N 29°60' W 093°55'0 0.0
2018-Feb-24 10:30N 29°60' W 093°55'0 0.0
2018-Feb-24 10:00N 29°60' W 093°55'0 0.9
2018-Feb-24 09:30N 29°59' W 093°54'3 6.6
2018-Feb-24 09:00N 29°58' W 093°51'4 8.1
2018-Feb-24 08:30N 29°60' W 093°46'3 6.1
2018-Feb-24 08:01N 30°02' W 093°44'3 5.4
2018-Feb-24 07:30N 30°04' W 093°41'4 5.5
2018-Feb-24 06:50N 30°04' W 093°37'2 5.6
2018-Feb-24 06:30N 30°04' W 093°35'3 5.6
2018-Feb-24 06:00N 30°04' W 093°32'2 4.5
2018-Feb-24 05:30N 30°04' W 093°29'3 5.5
2018-Feb-24 05:00N 30°04' W 093°26'1 1.6
2018-Feb-24 04:29N 30°04' W 093°25'2 4.2
2018-Feb-24 04:00N 30°04' W 093°23'0 0.1
2018-Feb-24 03:30N 30°04' W 093°23'0 0.9
2018-Feb-24 03:00N 30°04' W 093°22'3 5.6
2018-Feb-24 02:31N 30°05' W 093°20'2 3.7
2018-Feb-24 02:01N 30°05' W 093°18'2 3.4
2018-Feb-24 01:30N 30°04' W 093°16'0 0.1
2018-Feb-24 01:01N 30°04' W 093°16'0 0.0
2018-Feb-24 00:30N 30°04' W 093°16'0 0.7
2018-Feb-23 23:51N 30°04' W 093°16'2 5.2
2018-Feb-23 23:27N 30°02' W 093°15'47 4.6
2018-Feb-23 13:10N 29°51' W 092°22'2 5.1
2018-Feb-23 12:46N 29°50' W 092°20'1 5.0
2018-Feb-23 12:30N 29°50' W 092°18'2 3.9
2018-Feb-23 12:00N 29°49' W 092°16'1 2.1
2018-Feb-23 11:30N 29°48' W 092°15'3 5.4
2018-Feb-23 11:00N 29°47' W 092°13'2 3.4
2018-Feb-23 10:30N 29°47' W 092°11'2 4.8
2018-Feb-23 10:00N 29°47' W 092°08'3 5.7
2018-Feb-23 09:30N 29°48' W 092°05'  
2018-Feb-17 14:49N 29°50' W 091°60'2 5.7
2018-Feb-17 14:30N 29°49' W 092°02'3 5.5
2018-Feb-17 14:01N 29°48' W 092°05'1 2.1
2018-Feb-17 13:31N 29°48' W 092°06'0 0.2
2018-Feb-17 13:01N 29°48' W 092°06'0 0.0
2018-Feb-17 12:30N 29°48' W 092°06'0 0.0
2018-Feb-17 12:01N 29°48' W 092°06'0 0.0
2018-Feb-17 11:30N 29°48' W 092°06'0 0.0
2018-Feb-17 11:01N 29°48' W 092°06'0 0.0
2018-Feb-17 10:31N 29°48' W 092°06'0 0.0
2018-Feb-17 10:00N 29°48' W 092°06'0 0.0
2018-Feb-17 09:31N 29°48' W 092°06'0 0.0
2018-Feb-17 09:00N 29°48' W 092°06'0 0.0
2018-Feb-17 08:30N 29°48' W 092°06'0 0.0
2018-Feb-17 08:00N 29°48' W 092°06'0 0.0
2018-Feb-17 07:31N 29°48' W 092°06'0 0.0
2018-Feb-17 07:01N 29°48' W 092°06'0 0.0
2018-Feb-17 06:31N 29°48' W 092°06'0 0.1
2018-Feb-17 06:00N 29°48' W 092°06'2 3.6
2018-Feb-17 05:30N 29°47' W 092°08'3 5.2
2018-Feb-17 05:01N 29°47' W 092°11'1 1.8
2018-Feb-17 04:30N 29°47' W 092°12'2 3.8
2018-Feb-17 04:01N 29°48' W 092°14'0 0.0
2018-Feb-17 03:31N 29°48' W 092°14'1 2.3
2018-Feb-17 03:01N 29°48' W 092°15'2 4.8
2018-Feb-17 02:31N 29°49' W 092°18'2 3.7
2018-Feb-17 02:01N 29°50' W 092°19'40 5.4
2018-Feb-16 18:42N 29°56' W 093°05'2 5.6
2018-Feb-16 18:21N 29°56' W 093°07'2 4.5
2018-Feb-16 18:01N 29°56' W 093°09'3 5.0
2018-Feb-16 17:27N 29°58' W 093°11'2 5.2
2018-Feb-16 17:00N 29°60' W 093°13'2 4.6
2018-Feb-16 16:31N 30°02' W 093°14'2 3.9
2018-Feb-16 16:01N 30°03' W 093°16'2 3.1
2018-Feb-16 15:30N 30°04' W 093°16'0 0.1
2018-Feb-16 15:01N 30°04' W 093°16'0 0.0
2018-Feb-16 14:31N 30°04' W 093°16'0 0.0
2018-Feb-16 14:00N 30°04' W 093°16'1 2.4
2018-Feb-16 13:31N 30°05' W 093°17'1 2.4
2018-Feb-16 13:01N 30°06' W 093°18'0 0.1
2018-Feb-16 12:31N 30°06' W 093°18'0 0.0
2018-Feb-16 12:01N 30°06' W 093°18'0 0.0
2018-Feb-16 11:31N 30°06' W 093°18'0 0.0
2018-Feb-16 11:00N 30°06' W 093°18'0 0.0
2018-Feb-16 10:31N 30°06' W 093°18'0 0.0
2018-Feb-16 10:00N 30°06' W 093°18'0 0.0
2018-Feb-16 09:30N 30°06' W 093°18'0 0.0
2018-Feb-16 09:00N 30°06' W 093°18'0 0.0
2018-Feb-16 08:30N 30°06' W 093°18'0 0.0
2018-Feb-16 08:00N 30°06' W 093°18'0 0.0
2018-Feb-16 07:30N 30°06' W 093°18'0 0.0
2018-Feb-16 07:01N 30°06' W 093°18'0 0.0
2018-Feb-16 06:31N 30°06' W 093°18'0 0.0
2018-Feb-16 06:01N 30°06' W 093°18'0 0.0
2018-Feb-16 05:31N 30°06' W 093°18'0 0.0
2018-Feb-16 05:00N 30°06' W 093°18'0 0.0
2018-Feb-16 04:30N 30°06' W 093°18'0 0.0
2018-Feb-16 04:00N 30°06' W 093°18'0 0.0
2018-Feb-16 03:30N 30°06' W 093°18'0 0.0
2018-Feb-16 03:01N 30°06' W 093°18'0 0.0
2018-Feb-16 02:30N 30°06' W 093°18'0 0.0
2018-Feb-16 02:01N 30°06' W 093°18'0 0.0
2018-Feb-16 01:31N 30°06' W 093°18'0 0.0
2018-Feb-16 01:01N 30°06' W 093°18'0 0.0
2018-Feb-16 00:29N 30°06' W 093°18'1 2.3
2018-Feb-16 00:01N 30°06' W 093°19'3 5.7
2018-Feb-15 23:31N 30°08' W 093°20'2 4.2
2018-Feb-15 23:00N 30°10' W 093°19'0 0.2
2018-Feb-15 22:30N 30°10' W 093°19'0 0.0
2018-Feb-15 22:01N 30°10' W 093°19'0 0.0
2018-Feb-15 21:30N 30°10' W 093°19'0 0.0
2018-Feb-15 21:00N 30°10' W 093°19'0 0.0
2018-Feb-15 20:30N 30°10' W 093°19'0 0.0
2018-Feb-15 20:01N 30°10' W 093°19'0 0.0
2018-Feb-15 19:31N 30°10' W 093°19'0 0.0
2018-Feb-15 19:01N 30°10' W 093°19'0 0.0
2018-Feb-15 18:30N 30°10' W 093°19'0 0.0
2018-Feb-15 18:01N 30°10' W 093°19'0 0.0
2018-Feb-15 17:30N 30°10' W 093°19'0 0.0
2018-Feb-15 17:01N 30°10' W 093°19'0 0.0
2018-Feb-15 16:30N 30°10' W 093°19'0 0.0
2018-Feb-15 16:01N 30°10' W 093°19'0 0.0
2018-Feb-15 15:31N 30°10' W 093°19'0 0.0
2018-Feb-15 15:01N 30°10' W 093°19'0 0.0
2018-Feb-15 14:30N 30°10' W 093°19'0 0.0
2018-Feb-15 14:00N 30°10' W 093°19'0 0.0
2018-Feb-15 13:31N 30°10' W 093°19'0 0.0
2018-Feb-15 13:01N 30°10' W 093°19'0 0.0
2018-Feb-15 12:30N 30°10' W 093°19'0 0.0
2018-Feb-15 12:01N 30°10' W 093°19'0 0.0
2018-Feb-15 11:30N 30°10' W 093°19'0 0.0
2018-Feb-15 11:01N 30°10' W 093°19'0 0.0
2018-Feb-15 10:31N 30°10' W 093°19'0 0.0
2018-Feb-15 10:01N 30°10' W 093°19'0 0.0
2018-Feb-15 09:31N 30°10' W 093°19'0 0.0
2018-Feb-15 09:01N 30°10' W 093°19'0 0.0
2018-Feb-15 08:30N 30°10' W 093°19'0 0.0
2018-Feb-15 08:00N 30°10' W 093°19'0 0.0
2018-Feb-15 07:31N 30°10' W 093°19'0 0.0
2018-Feb-15 07:00N 30°10' W 093°19'0 0.0
2018-Feb-15 06:30N 30°10' W 093°19'0 0.0
2018-Feb-15 06:00N 30°10' W 093°19'0 0.0
2018-Feb-15 05:30N 30°10' W 093°19'0 0.0
2018-Feb-15 05:00N 30°10' W 093°19'0 0.0
2018-Feb-15 04:31N 30°10' W 093°19'0 0.0
2018-Feb-15 04:00N 30°10' W 093°19'0 0.0
2018-Feb-15 03:31N 30°10' W 093°19'0 0.0
2018-Feb-15 03:00N 30°10' W 093°19'0 0.0
2018-Feb-15 02:22N 30°10' W 093°19'0 0.0
2018-Feb-15 02:00N 30°10' W 093°19'0 0.0
2018-Feb-15 01:30N 30°10' W 093°19'0 0.1
2018-Feb-15 00:58N 30°10' W 093°19'0 0.0
2018-Feb-15 00:30N 30°10' W 093°19'0 0.0
2018-Feb-15 00:01N 30°10' W 093°19'0 0.0
2018-Feb-14 23:30N 30°10' W 093°19'0 0.0
2018-Feb-14 23:01N 30°10' W 093°19'0 0.0
2018-Feb-14 22:31N 30°10' W 093°19'0 0.0
2018-Feb-14 22:00N 30°10' W 093°19'0 0.0
2018-Feb-14 21:31N 30°10' W 093°19'0 0.0
2018-Feb-14 21:00N 30°10' W 093°19'0 0.0
2018-Feb-14 20:30N 30°10' W 093°19'0 0.0
2018-Feb-14 20:00N 30°10' W 093°19'0 0.0
2018-Feb-14 19:31N 30°10' W 093°19'  
Track history (hours):
 
Tides and Currents Weather Stations Pressure Air Temp Water Temp Dewpoint Dewpoint Depression Visibility Wind Speed Wind Dir Waves Ship Positions

Kate Golding

Owner: GOLDING BARGE LINE, INC, VICKSBURG, MS. More information available from US FCC via Universal Licensing System and Coast Guard Vessel Documentation Center.

Last reported at 2018-Feb-24 19:30 UTC. Time now 2018-Feb-24 19:45 UTC.
Position N 29°59' W 093°53'.

Length 121 m; draft 2.4 m.

Type: . MMSI: 367651810.

Date/timePositionNaut miles runAvg speedWind from/ knotsBaromVisibWave heightAir tempDewpointWater temp
2018-Feb-24 19:30N 29°59' W 093°53'0 0.0
2018-Feb-24 19:00N 29°59' W 093°53'0 0.0
2018-Feb-24 18:30N 29°59' W 093°53'0 0.0
2018-Feb-24 18:00N 29°59' W 093°53'0 0.0
2018-Feb-24 17:30N 29°59' W 093°53'0 0.0
2018-Feb-24 17:00N 29°59' W 093°53'0 0.0
2018-Feb-24 16:30N 29°59' W 093°53'0 0.0
2018-Feb-24 16:00N 29°59' W 093°53'0 0.0
2018-Feb-24 15:29N 29°59' W 093°53'0 0.0
2018-Feb-24 15:00N 29°59' W 093°53'1 2.3
2018-Feb-24 14:30N 29°59' W 093°54'0 1.0
2018-Feb-24 14:01N 29°60' W 093°55'0 0.0
2018-Feb-24 13:30N 29°60' W 093°55'0 0.0
2018-Feb-24 13:00N 29°60' W 093°55'0 0.0
2018-Feb-24 12:30N 29°60' W 093°55'0 0.0
2018-Feb-24 12:00N 29°60' W 093°55'0 0.0
2018-Feb-24 11:31N 29°60' W 093°55'0 0.0
2018-Feb-24 11:00N 29°60' W 093°55'0 0.0
2018-Feb-24 10:30N 29°60' W 093°55'0 0.0
2018-Feb-24 10:00N 29°60' W 093°55'0 0.9
2018-Feb-24 09:30N 29°59' W 093°54'3 6.6
2018-Feb-24 09:00N 29°58' W 093°51'4 8.1
2018-Feb-24 08:30N 29°60' W 093°46'3 6.1
2018-Feb-24 08:01N 30°02' W 093°44'3 5.4
2018-Feb-24 07:30N 30°04' W 093°41'4 5.5
2018-Feb-24 06:50N 30°04' W 093°37'2 5.6
2018-Feb-24 06:30N 30°04' W 093°35'3 5.6
2018-Feb-24 06:00N 30°04' W 093°32'2 4.5
2018-Feb-24 05:30N 30°04' W 093°29'3 5.5
2018-Feb-24 05:00N 30°04' W 093°26'1 1.6
2018-Feb-24 04:29N 30°04' W 093°25'2 4.2
2018-Feb-24 04:00N 30°04' W 093°23'0 0.1
2018-Feb-24 03:30N 30°04' W 093°23'0 0.9
2018-Feb-24 03:00N 30°04' W 093°22'3 5.6
2018-Feb-24 02:31N 30°05' W 093°20'2 3.7
2018-Feb-24 02:01N 30°05' W 093°18'2 3.4
2018-Feb-24 01:30N 30°04' W 093°16'0 0.1
2018-Feb-24 01:01N 30°04' W 093°16'0 0.0
2018-Feb-24 00:30N 30°04' W 093°16'0 0.7
2018-Feb-23 23:51N 30°04' W 093°16'2 5.2
2018-Feb-23 23:27N 30°02' W 093°15'47 4.6
2018-Feb-23 13:10N 29°51' W 092°22'2 5.1
2018-Feb-23 12:46N 29°50' W 092°20'1 5.0
2018-Feb-23 12:30N 29°50' W 092°18'2 3.9
2018-Feb-23 12:00N 29°49' W 092°16'1 2.1
2018-Feb-23 11:30N 29°48' W 092°15'3 5.4
2018-Feb-23 11:00N 29°47' W 092°13'2 3.4
2018-Feb-23 10:30N 29°47' W 092°11'2 4.8
2018-Feb-23 10:00N 29°47' W 092°08'3 5.7
2018-Feb-23 09:30N 29°48' W 092°05'  
2018-Feb-17 14:49N 29°50' W 091°60'2 5.7
2018-Feb-17 14:30N 29°49' W 092°02'3 5.5
2018-Feb-17 14:01N 29°48' W 092°05'1 2.1
2018-Feb-17 13:31N 29°48' W 092°06'0 0.2
2018-Feb-17 13:01N 29°48' W 092°06'0 0.0
2018-Feb-17 12:30N 29°48' W 092°06'0 0.0
2018-Feb-17 12:01N 29°48' W 092°06'0 0.0
2018-Feb-17 11:30N 29°48' W 092°06'0 0.0
2018-Feb-17 11:01N 29°48' W 092°06'0 0.0
2018-Feb-17 10:31N 29°48' W 092°06'0 0.0
2018-Feb-17 10:00N 29°48' W 092°06'0 0.0
2018-Feb-17 09:31N 29°48' W 092°06'0 0.0
2018-Feb-17 09:00N 29°48' W 092°06'0 0.0
2018-Feb-17 08:30N 29°48' W 092°06'0 0.0
2018-Feb-17 08:00N 29°48' W 092°06'0 0.0
2018-Feb-17 07:31N 29°48' W 092°06'0 0.0
2018-Feb-17 07:01N 29°48' W 092°06'0 0.0
2018-Feb-17 06:31N 29°48' W 092°06'0 0.1
2018-Feb-17 06:00N 29°48' W 092°06'2 3.6
2018-Feb-17 05:30N 29°47' W 092°08'3 5.2
2018-Feb-17 05:01N 29°47' W 092°11'1 1.8
2018-Feb-17 04:30N 29°47' W 092°12'2 3.8
2018-Feb-17 04:01N 29°48' W 092°14'0 0.0
2018-Feb-17 03:31N 29°48' W 092°14'1 2.3
2018-Feb-17 03:01N 29°48' W 092°15'2 4.8
2018-Feb-17 02:31N 29°49' W 092°18'2 3.7
2018-Feb-17 02:01N 29°50' W 092°19'40 5.4
2018-Feb-16 18:42N 29°56' W 093°05'2 5.6
2018-Feb-16 18:21N 29°56' W 093°07'2 4.5
2018-Feb-16 18:01N 29°56' W 093°09'3 5.0
2018-Feb-16 17:27N 29°58' W 093°11'2 5.2
2018-Feb-16 17:00N 29°60' W 093°13'2 4.6
2018-Feb-16 16:31N 30°02' W 093°14'2 3.9
2018-Feb-16 16:01N 30°03' W 093°16'2 3.1
2018-Feb-16 15:30N 30°04' W 093°16'0 0.1
2018-Feb-16 15:01N 30°04' W 093°16'0 0.0
2018-Feb-16 14:31N 30°04' W 093°16'0 0.0
2018-Feb-16 14:00N 30°04' W 093°16'1 2.4
2018-Feb-16 13:31N 30°05' W 093°17'1 2.4
2018-Feb-16 13:01N 30°06' W 093°18'0 0.1
2018-Feb-16 12:31N 30°06' W 093°18'0 0.0
2018-Feb-16 12:01N 30°06' W 093°18'0 0.0
2018-Feb-16 11:31N 30°06' W 093°18'0 0.0
2018-Feb-16 11:00N 30°06' W 093°18'0 0.0
2018-Feb-16 10:31N 30°06' W 093°18'0 0.0
2018-Feb-16 10:00N 30°06' W 093°18'0 0.0
2018-Feb-16 09:30N 30°06' W 093°18'0 0.0
2018-Feb-16 09:00N 30°06' W 093°18'0 0.0
2018-Feb-16 08:30N 30°06' W 093°18'0 0.0
2018-Feb-16 08:00N 30°06' W 093°18'0 0.0
2018-Feb-16 07:30N 30°06' W 093°18'0 0.0
2018-Feb-16 07:01N 30°06' W 093°18'0 0.0
2018-Feb-16 06:31N 30°06' W 093°18'0 0.0
2018-Feb-16 06:01N 30°06' W 093°18'0 0.0
2018-Feb-16 05:31N 30°06' W 093°18'0 0.0
2018-Feb-16 05:00N 30°06' W 093°18'0 0.0
2018-Feb-16 04:30N 30°06' W 093°18'0 0.0
2018-Feb-16 04:00N 30°06' W 093°18'0 0.0
2018-Feb-16 03:30N 30°06' W 093°18'0 0.0
2018-Feb-16 03:01N 30°06' W 093°18'0 0.0
2018-Feb-16 02:30N 30°06' W 093°18'0 0.0
2018-Feb-16 02:01N 30°06' W 093°18'0 0.0
2018-Feb-16 01:31N 30°06' W 093°18'0 0.0
2018-Feb-16 01:01N 30°06' W 093°18'0 0.0
2018-Feb-16 00:29N 30°06' W 093°18'1 2.3
2018-Feb-16 00:01N 30°06' W 093°19'3 5.7
2018-Feb-15 23:31N 30°08' W 093°20'2 4.2
2018-Feb-15 23:00N 30°10' W 093°19'0 0.2
2018-Feb-15 22:30N 30°10' W 093°19'0 0.0
2018-Feb-15 22:01N 30°10' W 093°19'0 0.0
2018-Feb-15 21:30N 30°10' W 093°19'0 0.0
2018-Feb-15 21:00N 30°10' W 093°19'0 0.0
2018-Feb-15 20:30N 30°10' W 093°19'0 0.0
2018-Feb-15 20:01N 30°10' W 093°19'0 0.0
2018-Feb-15 19:31N 30°10' W 093°19'0 0.0
2018-Feb-15 19:01N 30°10' W 093°19'0 0.0
2018-Feb-15 18:30N 30°10' W 093°19'0 0.0
2018-Feb-15 18:01N 30°10' W 093°19'0 0.0
2018-Feb-15 17:30N 30°10' W 093°19'0 0.0
2018-Feb-15 17:01N 30°10' W 093°19'0 0.0
2018-Feb-15 16:30N 30°10' W 093°19'0 0.0
2018-Feb-15 16:01N 30°10' W 093°19'0 0.0
2018-Feb-15 15:31N 30°10' W 093°19'0 0.0
2018-Feb-15 15:01N 30°10' W 093°19'0 0.0
2018-Feb-15 14:30N 30°10' W 093°19'0 0.0
2018-Feb-15 14:00N 30°10' W 093°19'0 0.0
2018-Feb-15 13:31N 30°10' W 093°19'0 0.0
2018-Feb-15 13:01N 30°10' W 093°19'0 0.0
2018-Feb-15 12:30N 30°10' W 093°19'0 0.0
2018-Feb-15 12:01N 30°10' W 093°19'0 0.0
2018-Feb-15 11:30N 30°10' W 093°19'0 0.0
2018-Feb-15 11:01N 30°10' W 093°19'0 0.0
2018-Feb-15 10:31N 30°10' W 093°19'0 0.0
2018-Feb-15 10:01N 30°10' W 093°19'0 0.0
2018-Feb-15 09:31N 30°10' W 093°19'0 0.0
2018-Feb-15 09:01N 30°10' W 093°19'0 0.0
2018-Feb-15 08:30N 30°10' W 093°19'0 0.0
2018-Feb-15 08:00N 30°10' W 093°19'0 0.0
2018-Feb-15 07:31N 30°10' W 093°19'0 0.0
2018-Feb-15 07:00N 30°10' W 093°19'0 0.0
2018-Feb-15 06:30N 30°10' W 093°19'0 0.0
2018-Feb-15 06:00N 30°10' W 093°19'0 0.0
2018-Feb-15 05:30N 30°10' W 093°19'0 0.0
2018-Feb-15 05:00N 30°10' W 093°19'0 0.0
2018-Feb-15 04:31N 30°10' W 093°19'0 0.0
2018-Feb-15 04:00N 30°10' W 093°19'0 0.0
2018-Feb-15 03:31N 30°10' W 093°19'0 0.0
2018-Feb-15 03:00N 30°10' W 093°19'0 0.0
2018-Feb-15 02:22N 30°10' W 093°19'0 0.0
2018-Feb-15 02:00N 30°10' W 093°19'0 0.0
2018-Feb-15 01:30N 30°10' W 093°19'0 0.1
2018-Feb-15 00:58N 30°10' W 093°19'0 0.0
2018-Feb-15 00:30N 30°10' W 093°19'0 0.0
2018-Feb-15 00:01N 30°10' W 093°19'0 0.0
2018-Feb-14 23:30N 30°10' W 093°19'0 0.0
2018-Feb-14 23:01N 30°10' W 093°19'0 0.0
2018-Feb-14 22:31N 30°10' W 093°19'0 0.0
2018-Feb-14 22:00N 30°10' W 093°19'0 0.0
2018-Feb-14 21:31N 30°10' W 093°19'0 0.0
2018-Feb-14 21:00N 30°10' W 093°19'0 0.0
2018-Feb-14 20:30N 30°10' W 093°19'0 0.0
2018-Feb-14 20:00N 30°10' W 093°19'0 0.0
2018-Feb-14 19:31N 30°10' W 093°19'  

Dump ship's entire track history